Flag for U.S.A. Weather past 2 weeks in Redmond, Washington, U.S.A.

Now
58 °F

Passing clouds.


Feels Like: 56 °F
Forecast: 45 / 60 °F
Wind: 8 mph from Southeast

Location: Seattle Boeing Field


UV Index: 0 (Low)

Visibility: 10 mi


Pressure: 30.28 "Hg

Humidity: 41%

Dew point: 34 °F

Location of RedmondLocation

Historic Weather in Redmond

°F

Redmond temperature yesterday

Maximum temperature yesterday: 55 °F (at 3:53 PM)
Minimum temperature yesterday: 45 °F (at 5:53 AM)
Average temperature yesterday: 50 °F

Past Weeks' High & Low Weather Summary

 TemperatureHumidityPressure
High72 °F (Apr 7, 3:53 PM)89% (Apr 17, 12:53 AM)30.31 "Hg (Apr 17, 12:53 AM)
Low42 °F (Apr 14, 6:53 AM)18% (Apr 13, 4:53 PM)29.73 "Hg (Apr 17, 7:53 PM)
Average54 °F65%30.12 "Hg
* Reported Apr 5 11:53 AM — Apr 20 11:53 AM, Redmond, Weather by CustomWeather, © 2014

Note: Actual official high and low records may vary slightly from our data, if they occured in-between our weather recording intervals... More about our weather records

Advertising

Historic Weather Conditions — Data for Previous 24 hours

 ConditionsComfort  
Time TempWeatherWind HumidityBarometerVisibility
11:53 AM
Apr 20
58 °FPassing clouds.8 mph41%30.28 "Hg10 mi
10:53 AM57 °FPartly sunny.9 mph46%30.30 "Hg10 mi
9:53 AM55 °FPassing clouds.10 mph53%30.29 "Hg10 mi
8:53 AM51 °FPassing clouds.9 mph61%30.30 "Hg10 mi
7:53 AM48 °FPartly sunny.7 mph74%30.29 "Hg10 mi
6:53 AM45 °FPartly cloudy.7 mph82%30.28 "Hg10 mi
5:53 AM46 °FOvercast.7 mph79%30.27 "Hg10 mi
4:53 AM46 °FMostly cloudy.7 mph83%30.27 "Hg10 mi
3:53 AM48 °FOvercast.7 mph77%30.26 "Hg10 mi
2:53 AM49 °FMostly cloudy.8 mph74%30.24 "Hg10 mi
1:53 AM50 °FClear.9 mph71%30.22 "Hg10 mi
12:53 AM50 °FClear.12 mph74%30.20 "Hg10 mi
11:53 PM
Apr 19
50 °FClear.13 mph71%30.17 "Hg10 mi
10:53 PM50 °FPassing clouds.16 mph74%30.18 "Hg10 mi
9:53 PM49 °FClear.10 mph74%30.14 "Hg10 mi
8:53 PM51 °FPartly sunny.14 mph74%30.10 "Hg10 mi
7:53 PM51 °FPartly sunny.15 mph71%30.05 "Hg10 mi
6:53 PM53 °FPartly sunny.10 mph72%30.02 "Hg10 mi
5:53 PM53 °FMostly cloudy.12 mph72%29.98 "Hg10 mi
4:53 PM55 °FBroken clouds.12 mph72%29.95 "Hg10 mi
3:53 PM55 °FLight rain. Mostly cloudy.9 mph72%29.93 "Hg10 mi
2:53 PM53 °FCloudy.14 mph80%29.91 "Hg10 mi
2:02 PM52 °FLight rain. Cloudy.12 mph82%29.91 "Hg4 mi
1:56 PM52 °FLight rain. Cloudy.10 mph82%29.91 "Hg2 mi
12:53 PM49 °FLight rain. Mostly cloudy.12 mph84%29.88 "Hg9 mi
Weather by CustomWeather, © 2014

See weather overview